Time,TemperatureF,DewpointF,PressureIn,WindDirection,WindDirectionDegrees,WindSpeedMPH,WindSpeedGustMPH,Humidity,HourlyPrecipIn,Conditions,Clouds,dailyrainin,SolarRadiationWatts/m^2,SoftwareType,DateUTC
2013-10-18 00:02:00,52.0,45.0,-100.00,ENE,71,2.0,4.0,78,-99.99,,,0.00,0.000000,,2013-10-18 07:02:00,
2013-10-18 00:11:00,52.0,45.0,-100.00,ENE,71,2.0,4.0,78,-99.99,,,0.00,0.000000,,2013-10-18 07:11:00,
2013-10-18 00:42:00,54.0,46.0,30.27,ENE,59,2.0,8.0,73,-99.99,,,0.00,0.000000,,2013-10-18 07:42:00,
2013-10-18 00:52:00,54.0,46.0,30.27,ENE,59,2.0,8.0,73,-99.99,,,0.00,0.000000,,2013-10-18 07:52:00,
2013-10-18 01:02:00,54.0,46.0,30.27,ENE,59,2.0,8.0,73,-99.99,,,0.00,0.000000,,2013-10-18 08:02:00,
2013-10-18 01:11:00,54.0,46.0,30.27,ENE,59,2.0,8.0,73,-99.99,,,0.00,0.000000,,2013-10-18 08:11:00,
2013-10-18 01:42:00,54.0,45.0,30.28,ENE,58,2.0,8.0,73,-99.99,,,0.00,0.000000,,2013-10-18 08:42:00,
2013-10-18 01:52:00,54.0,45.0,-100.00,ENE,58,2.0,8.0,73,-99.99,,,0.00,0.000000,,2013-10-18 08:52:00,
2013-10-18 02:02:00,54.0,45.0,-100.00,ENE,58,2.0,8.0,73,-99.99,,,0.00,0.000000,,2013-10-18 09:02:00,
2013-10-18 02:11:00,54.0,45.0,30.28,ENE,58,2.0,8.0,73,-99.99,,,0.00,0.000000,,2013-10-18 09:11:00,
2013-10-18 02:53:00,54.0,43.0,-100.00,ENE,74,5.0,13.0,65,-99.99,,,0.00,0.000000,,2013-10-18 09:53:00,
2013-10-18 03:03:00,54.0,43.0,-100.00,ENE,74,5.0,13.0,65,-99.99,,,0.00,0.000000,,2013-10-18 10:03:00,
2013-10-18 03:12:00,54.0,43.0,30.28,ENE,74,5.0,13.0,65,-99.99,,,0.00,0.000000,,2013-10-18 10:12:00,
2013-10-18 03:43:00,53.0,42.0,30.29,ENE,77,5.0,13.0,66,-99.99,,,0.00,0.000000,,2013-10-18 10:43:00,
2013-10-18 03:53:00,53.0,42.0,-100.00,ENE,77,5.0,13.0,66,-99.99,,,0.00,0.000000,,2013-10-18 10:53:00,
2013-10-18 04:02:00,53.0,42.0,-100.00,ENE,77,5.0,13.0,66,-99.99,,,0.00,0.000000,,2013-10-18 11:02:00,
2013-10-18 04:12:00,53.0,42.0,30.29,ENE,77,5.0,13.0,66,-99.99,,,0.00,0.000000,,2013-10-18 11:12:00,
2013-10-18 04:42:00,52.0,42.0,30.30,East,82,5.0,16.0,66,-99.99,,,-99.99,0.000000,,2013-10-18 11:42:00,
2013-10-18 04:52:00,52.0,42.0,30.30,East,82,5.0,16.0,66,-99.99,,,-99.99,0.000000,,2013-10-18 11:52:00,
2013-10-18 05:02:00,52.0,42.0,30.30,East,82,5.0,16.0,66,-99.99,,,-99.99,0.000000,,2013-10-18 12:02:00,
2013-10-18 05:12:00,52.0,42.0,-100.00,East,82,5.0,16.0,66,-99.99,,,-99.99,0.000000,,2013-10-18 12:12:00,
2013-10-18 05:42:00,52.0,42.0,30.29,ENE,76,4.0,11.0,69,-99.99,,,0.00,0.000000,,2013-10-18 12:42:00,
2013-10-18 05:52:00,52.0,42.0,30.29,ENE,76,4.0,11.0,69,-99.99,,,0.00,0.000000,,2013-10-18 12:52:00,
2013-10-18 06:01:00,52.0,42.0,30.29,ENE,76,4.0,11.0,69,-99.99,,,0.00,0.000000,,2013-10-18 13:01:00,
2013-10-18 06:11:00,52.0,42.0,-100.00,ENE,76,4.0,11.0,69,-99.99,,,0.00,0.000000,,2013-10-18 13:11:00,
2013-10-18 06:42:00,51.0,42.0,30.29,East,86,4.0,16.0,71,-99.99,,,-99.99,0.000000,,2013-10-18 13:42:00,
2013-10-18 06:52:00,51.0,42.0,-100.00,East,86,4.0,16.0,71,-99.99,,,-99.99,0.000000,,2013-10-18 13:52:00,
2013-10-18 07:02:00,51.0,42.0,-100.00,East,86,4.0,16.0,71,-99.99,,,-99.99,0.000000,,2013-10-18 14:02:00,
2013-10-18 07:11:00,51.0,42.0,30.29,East,86,4.0,16.0,71,-99.99,,,-99.99,0.000000,,2013-10-18 14:11:00,
2013-10-18 07:52:00,51.0,41.0,30.29,ENE,69,3.0,12.0,70,-99.99,,,0.00,0.000000,,2013-10-18 14:52:00,
2013-10-18 08:02:00,51.0,41.0,30.29,ENE,69,3.0,12.0,70,-99.99,,,0.00,0.000000,,2013-10-18 15:02:00,
2013-10-18 08:11:00,51.0,41.0,-100.00,ENE,69,3.0,12.0,70,-99.99,,,0.00,0.000000,,2013-10-18 15:11:00,
2013-10-18 08:43:00,50.0,41.0,30.29,ENE,77,6.0,16.0,70,-99.99,,,0.00,0.350000,,2013-10-18 15:43:00,
2013-10-18 08:54:00,50.0,41.0,-100.00,ENE,77,6.0,16.0,70,-99.99,,,0.00,0.350000,,2013-10-18 15:54:00,
2013-10-18 09:04:00,50.0,41.0,-100.00,ENE,77,6.0,16.0,70,-99.99,,,0.00,0.350000,,2013-10-18 16:04:00,
2013-10-18 09:12:00,50.0,41.0,30.29,ENE,77,6.0,16.0,70,-99.99,,,0.00,0.350000,,2013-10-18 16:12:00,
2013-10-18 09:53:00,49.0,40.0,-100.00,ENE,78,4.0,15.0,69,-99.99,,,0.00,13.020000,,2013-10-18 16:53:00,
2013-10-18 10:03:00,49.0,40.0,-100.00,ENE,78,4.0,15.0,69,-99.99,,,0.00,13.020000,,2013-10-18 17:03:00,
2013-10-18 10:12:00,49.0,40.0,-100.00,ENE,78,4.0,15.0,69,-99.99,,,0.00,13.020000,,2013-10-18 17:12:00,
2013-10-18 10:42:00,52.0,41.0,30.30,East,79,5.0,16.0,65,-99.99,,,0.00,31.959999,,2013-10-18 17:42:00,
2013-10-18 10:52:00,52.0,41.0,30.30,East,79,5.0,16.0,65,-99.99,,,0.00,31.959999,,2013-10-18 17:52:00,
2013-10-18 11:02:00,52.0,41.0,30.30,East,79,5.0,16.0,65,-99.99,,,0.00,31.959999,,2013-10-18 18:02:00,
2013-10-18 11:12:00,52.0,41.0,30.30,East,79,5.0,16.0,65,-99.99,,,0.00,31.959999,,2013-10-18 18:12:00,
2013-10-18 11:42:00,56.0,41.0,30.30,East,81,5.0,15.0,58,-99.99,,,0.00,365.739990,,2013-10-18 18:42:00,
2013-10-18 11:52:00,56.0,41.0,-100.00,East,81,5.0,15.0,58,-99.99,,,0.00,365.739990,,2013-10-18 18:52:00,
2013-10-18 12:01:00,56.0,41.0,-100.00,East,81,5.0,15.0,58,-99.99,,,0.00,365.739990,,2013-10-18 19:01:00,
2013-10-18 12:11:00,56.0,41.0,-100.00,East,81,5.0,15.0,58,-99.99,,,0.00,365.739990,,2013-10-18 19:11:00,
2013-10-18 12:42:00,59.0,41.0,30.29,ENE,78,6.0,13.0,52,-99.99,,,0.00,481.149994,,2013-10-18 19:42:00,
2013-10-18 12:52:00,59.0,41.0,-100.00,ENE,78,6.0,13.0,52,-99.99,,,0.00,481.149994,,2013-10-18 19:52:00,
2013-10-18 13:02:00,59.0,41.0,-100.00,ENE,78,6.0,13.0,52,-99.99,,,0.00,481.149994,,2013-10-18 20:02:00,
2013-10-18 13:11:00,59.0,41.0,-100.00,ENE,78,6.0,13.0,52,-99.99,,,0.00,481.149994,,2013-10-18 20:11:00,
2013-10-18 13:42:00,62.0,42.0,30.27,East,82,3.0,11.0,49,-99.99,,,0.00,549.599976,,2013-10-18 20:42:00,
2013-10-18 13:52:00,62.0,42.0,30.27,East,82,3.0,11.0,49,-99.99,,,0.00,549.599976,,2013-10-18 20:52:00,
2013-10-18 14:02:00,62.0,42.0,30.27,East,82,3.0,11.0,49,-99.99,,,0.00,549.599976,,2013-10-18 21:02:00,
2013-10-18 14:11:00,62.0,42.0,-100.00,East,82,3.0,11.0,49,-99.99,,,0.00,549.599976,,2013-10-18 21:11:00,
2013-10-18 14:45:00,64.0,42.0,30.25,South,169,3.0,7.0,43,-99.99,,,0.00,566.690002,,2013-10-18 21:45:00,
2013-10-18 14:54:00,64.0,42.0,30.25,South,169,3.0,7.0,43,-99.99,,,0.00,566.690002,,2013-10-18 21:54:00,
2013-10-18 15:04:00,64.0,42.0,30.25,South,169,3.0,7.0,43,-99.99,,,0.00,566.690002,,2013-10-18 22:04:00,
2013-10-18 15:13:00,64.0,42.0,-100.00,South,169,3.0,7.0,43,-99.99,,,0.00,566.690002,,2013-10-18 22:13:00,
2013-10-18 15:54:00,64.0,44.0,30.23,South,185,4.0,7.0,48,-99.99,,,0.00,524.729980,,2013-10-18 22:54:00,
2013-10-18 16:03:00,64.0,44.0,30.23,South,185,4.0,7.0,48,-99.99,,,0.00,524.729980,,2013-10-18 23:03:00,
2013-10-18 16:12:00,64.0,44.0,-100.00,South,185,4.0,7.0,48,-99.99,,,0.00,524.729980,,2013-10-18 23:12:00,
2013-10-18 16:43:00,66.0,45.0,30.21,South,182,3.0,8.0,46,-99.99,,,0.00,435.359985,,2013-10-18 23:43:00,
2013-10-18 16:53:00,66.0,45.0,30.21,South,182,3.0,8.0,46,-99.99,,,0.00,435.359985,,2013-10-18 23:53:00,
2013-10-18 17:02:00,66.0,45.0,30.21,South,182,3.0,8.0,46,-99.99,,,0.00,435.359985,,2013-10-19 00:02:00,
2013-10-18 17:11:00,66.0,45.0,-100.00,South,182,3.0,8.0,46,-99.99,,,0.00,435.359985,,2013-10-19 00:11:00,
2013-10-18 17:42:00,64.0,48.0,30.20,SE,146,2.0,4.0,55,-99.99,,,0.00,305.429993,,2013-10-19 00:42:00,
2013-10-18 17:52:00,64.0,48.0,30.20,SE,146,2.0,4.0,55,-99.99,,,0.00,305.429993,,2013-10-19 00:52:00,
2013-10-18 18:02:00,64.0,48.0,30.20,SE,146,2.0,4.0,55,-99.99,,,0.00,305.429993,,2013-10-19 01:02:00,
2013-10-18 18:11:00,64.0,48.0,-100.00,SE,146,2.0,4.0,55,-99.99,,,0.00,305.429993,,2013-10-19 01:11:00,
2013-10-18 18:53:00,63.0,46.0,-100.00,SSE,167,2.0,6.0,55,-99.99,,,0.00,153.059998,,2013-10-19 01:53:00,
2013-10-18 19:02:00,63.0,46.0,-100.00,SSE,167,2.0,6.0,55,-99.99,,,0.00,153.059998,,2013-10-19 02:02:00,
2013-10-18 19:12:00,63.0,46.0,30.20,SSE,167,2.0,6.0,55,-99.99,,,0.00,153.059998,,2013-10-19 02:12:00,
2013-10-18 19:42:00,60.0,46.0,-100.00,ENE,67,2.0,7.0,61,-99.99,,,0.00,9.410000,,2013-10-19 02:42:00,
2013-10-18 19:52:00,60.0,46.0,-100.00,ENE,67,2.0,7.0,61,-99.99,,,0.00,9.410000,,2013-10-19 02:52:00,
2013-10-18 20:02:00,60.0,46.0,-100.00,ENE,67,2.0,7.0,61,-99.99,,,0.00,9.410000,,2013-10-19 03:02:00,
2013-10-18 20:11:00,60.0,46.0,-100.00,ENE,67,2.0,7.0,61,-99.99,,,0.00,9.410000,,2013-10-19 03:11:00,
2013-10-18 20:45:00,55.0,48.0,30.20,ENE,65,2.0,4.0,78,-99.99,,,0.00,0.000000,,2013-10-19 03:45:00,
2013-10-18 20:55:00,55.0,48.0,-100.00,ENE,65,2.0,4.0,78,-99.99,,,0.00,0.000000,,2013-10-19 03:55:00,
2013-10-18 21:05:00,55.0,48.0,-100.00,ENE,65,2.0,4.0,78,-99.99,,,0.00,0.000000,,2013-10-19 04:05:00,
2013-10-18 21:13:00,55.0,48.0,-100.00,ENE,65,2.0,4.0,78,-99.99,,,0.00,0.000000,,2013-10-19 04:13:00,
2013-10-18 21:44:00,54.0,46.0,-100.00,ENE,70,3.0,5.0,75,-99.99,,,0.00,0.000000,,2013-10-19 04:44:00,
2013-10-18 21:54:00,54.0,46.0,-100.00,ENE,70,3.0,5.0,75,-99.99,,,0.00,0.000000,,2013-10-19 04:54:00,
2013-10-18 22:04:00,54.0,46.0,-100.00,ENE,70,3.0,5.0,75,-99.99,,,0.00,0.000000,,2013-10-19 05:04:00,
2013-10-18 22:13:00,54.0,46.0,-100.00,ENE,70,3.0,5.0,75,-99.99,,,0.00,0.000000,,2013-10-19 05:13:00,
2013-10-18 22:42:00,53.0,46.0,30.21,East,79,3.0,6.0,77,-99.99,,,-99.99,0.000000,,2013-10-19 05:42:00,
2013-10-18 22:52:00,53.0,46.0,30.21,East,79,3.0,6.0,77,-99.99,,,-99.99,0.000000,,2013-10-19 05:52:00,
2013-10-18 23:02:00,53.0,46.0,30.21,East,79,3.0,6.0,77,-99.99,,,-99.99,0.000000,,2013-10-19 06:02:00,
2013-10-18 23:12:00,53.0,46.0,-100.00,East,79,3.0,6.0,77,-99.99,,,-99.99,0.000000,,2013-10-19 06:12:00,
2013-10-18 23:42:00,52.0,45.0,30.21,ENE,70,3.0,5.0,77,-99.99,,,0.00,0.000000,,2013-10-19 06:42:00,
2013-10-18 23:52:00,52.0,45.0,30.21,ENE,70,3.0,5.0,77,-99.99,,,0.00,0.000000,,2013-10-19 06:52:00,